Location: Newark
(47.5000°N, 4.6167°E)
Time: 22:48:43
(UTC+00:00)

X-37B - Visible Passes

Search period start: 26 February 2021 00:00
Search period end: 08 March 2021 00:00
Orbit: 383 x 391 km, 45.0° (Epoch: 10 February)

Date Brightness Start Highest point End Pass type
(mag) Time Alt. Az. Time Alt. Az. Time Alt. Az.
26 Feb 2.7 04:07:49 25° ESE 04:07:49 25° ESE 04:09:23 10° ESE visible
26 Feb 1.7 05:40:06 12° W 05:42:39 31° SSW 05:45:31 10° SE visible
27 Feb 1.2 04:44:21 42° SSW 04:44:24 42° SSW 04:47:25 10° ESE visible
28 Feb 3.6 03:48:39 14° ESE 03:48:39 14° ESE 03:49:12 10° ESE visible
28 Feb 2.2 05:20:56 16° WSW 05:22:23 22° SSW 05:24:55 10° SSE visible
01 Mar 2.3 04:25:18 24° SSE 04:25:18 24° SSE 04:27:02 10° SE visible
02 Mar 2.6 05:02:03 15° SSW 05:02:03 15° SSW 05:03:57 10° S visible
